Location: Pabrico
(37.5827°N, 122.0063°W)
Time: 11:14:16
(UTC+00:00)

Cosmos 1933 Rocket - Pass Details

Date: 13 April 2024
Orbit: 602 x 627 km, 82.5° (Epoch: 24 May)

Event Time Altitude Azimuth Distance (km) Brightness Sun altitude
Rises 12:50:49 0° 353° (N) 2,887 7.2 -9.3°
Reaches altitude 10° 12:53:04 10° 355° (N) 1,973 6.3 -8.8°
Maximum altitude 12:57:26 83° 81° (E) 618 3.6 -8.0°
Drops below altitude 10° 13:01:44 10° 172° (S) 1,945 6.0 -7.2°
Sets 13:03:56 0° 173° (S) 2,842 6.9 -6.8°
